Погода в Пуэрто-Мальдонадо

Перу     12°34′51″S   69°12′07″W
темп.,
°C
ветер,
м/с
пор.,
м/с
влажн.,
%
обл.,
%
осадки,
мм/ч
давл.,
гПа
погр.,
м
11 апреля, вс
вс1101:00+22сз1299100 0.1 100982
04:00+21сз159949 0.0 1009165
07:00+23сз139782 0.0 1011162
10:00+30сз135920 0.0 10121248
13:00+27зсз139197 3.4 1009417
16:00+27ссз139597 4.9 1007211
19:00+23св1197100 6.4 101011
22:00+22юв0098100 0.1 101212
12 апреля, пн
пн1201:00+22юз0099100 1.3 101116
04:00+21з11100100 3.9 101135
07:00+22ююз01100100 10.9 101490
10:00+23ю1298100 2.8 1016237
13:00+23юв2798100 5.6 1013541
16:00+20вюв21198100 1.1 1013590
19:00+19в189979 1.2 1013429
22:00+19юв169999 0.0 1016395
13 апреля, вт
вт1301:00+19юв179897 0.0 1015441
04:00+19вюв1798100 0.1 1015376
07:00+20юв169582 0.1 1017360
10:00+26вюв256539 0.0 10171076
13:00+28вюв2459100 0.0 10131499
16:00+25вюв118886 0.4 101113
19:00+22ююв019642 0.6 101211
22:00+21ю11989 0.0 101515
14 апреля, ср
ср1401:00+21ююв119924 0.0 101435
04:00+20ю119931 0.0 101321
07:00+22юв139410 0.0 1015147
10:00+29вюв24575 0.0 10151137
13:00+32вюв124799 0.0 10102124
16:00+29ссв127092 0.1 1008114
19:00+25с1185100 0.2 101012
22:00+24сз0084100 0.0 101213
15 апреля, чт
чт1501:00+22зюз1198100 1.1 101121
04:00+22сз0098100 0.1 101016
07:00+23сз019896 0.9 101361
10:00+28зсз127339 1.4 1013698
13:00+27сз129093 6.9 1009352
16:00+26с0194100 3.3 100760
19:00+23ссв1198100 3.5 100927
22:00+22ссз1198100 0.0 101115